User: anonymous   Login
Location: Bishop's University Astronomical Observatory
(45.3661°N, 71.8475°W)
Time: 13:08:44
(UTC-05:00)
Language:

Meteor 2-5 Rocket - Orbit

View from above orbital plane
View from above orbital plane
View from above satellite
View from above satellite

Ground track
Ground track

The orbit data is extracted from the following two-line orbital elements,

1 11608U 79095B   15031.19595171 -.00000046  00000-0 -35771-4 0  7508
2 11608 081.2176 333.2594 0055899 081.5042 027.0703 14.06047091808106
Epoch (UTC): 31 January 2015 04:42:10
Eccentricity: 0.0055899
inclination: 81.2176°
perigee height: 832 km
apogee height: 913 km
right ascension of ascending node: 333.2594°
argument of perigee: 81.5042°
revolutions per day: 14.06047091
mean anomaly at epoch: 27.0703°
orbit number at epoch: 80810

The dashed part of the orbit path shows where the satellite is in the earth's shadow,  

DLR